OpenBCM V2.0.3 (Linux)

Packet Radio Mailbox

IZ3LSV

[San Dona' di P. JN]

 Login: GUEST





  
CT1ENI > KEPS     15.12.13 18:05l 76 Lines 3070 Bytes #999 (0) @ WW
BID : 6590-CT1ENI
Read: GUEST
Subj: Keplerian Data
Path: IZ3LSV<IK2XDE<DB0RES<ON0AR<F1OYP<F1OYP<CT1ENI
Sent: 131215/1537Z @:CT1ENI.CTLX.PRT.EU #:6590 [6591] FBB7.01.33 alpha $:6590-C
From: CT1ENI@CT1ENI.CTLX.PRT.EU
To  : KEPS@WW

ZCZC SK97
QST de W1AW
Keplerian Bulletin 97 ARLK097
From ARRL Headquarters
Newington, CT December 13, 2013
To all radio amateurs

SB KEP ARL ARLK097
ARLK097 Keplerian data

Special thanks to AMSAT-NA (AMSAT.ORG) for the following Keplerian
data.

Decode 2-line elsets with the following key:
1 AAAAAU 00 0 0 BBBBB.BBBBBBBB .CCCCCCCC 00000-0 00000-0 0 DDDZ
2 AAAAA EEE.EEEE FFF.FFFF GGGGGGG HHH.HHHH III.IIII JJ.JJJJJJJJKKKKKZ
KEY: A-CATALOGNUM B-EPOCHTIME C-DECAY D-ELSETNUM E-INCLINATION F-RAAN
G-ECCENTRICITY H-ARGPERIGEE I-MNANOM J-MNMOTION K-ORBITNUM Z-CHECKSUM

0 AO-07
1 07530U 74089B 13347.52096215 -.00000036 00000-0 47461-4 0 8468
2 07530 101.4510 330.6347 0011669 298.6351 172.3028 12.53600803788253
0 AO-16
1 20439U 90005D 13347.22446322 .00000305 00000-0 12890-3 0 9053
2 20439 098.4911 283.2444 0010556 355.5776 138.4292 14.32248777247865
0 AO-27
1 22825U 93061C 13347.87087715 .00000213 00000-0 10017-3 0 5487
2 22825 098.6415 290.1742 0009498 119.1900 311.6756 14.29627420 54308
0 FO-29
1 24278U 96046B 13346.66825816 .00000001 00000-0 34862-4 0 2628
2 24278 098.5307 021.1448 0351324 061.6302 082.5666 13.53011694855445
0 ISS
1 25544U 98067A 13347.92218778 -.00148299 00000-0 -26766-2 0 2292
2 25544 051.6470 297.7746 0004703 274.5976 207.0957 15.49598301862585
0 NO-44
1 26931U 01043C 13346.87070442 .00000249 00000-0 12844-3 0 4877
2 26931 067.0506 158.8635 0006227 262.9729 097.0664 14.30002792636967
0 SO-50
1 27607U 02058C 13347.76262881 .00001369 00000-0 23039-3 0 2469
2 27607 064.5579 077.3499 0032033 086.8456 046.6124 14.73263829590166
0 CO-55
1 27844U 03031E 13346.60507127 .00000464 00000-0 23236-3 0 8067
2 27844 098.6998 353.0833 0010761 095.3418 022.5111 14.21334696542075
0 RS-22
1 27939U 03042A 13347.86384087 .00001441 00000-0 27854-3 0 340
2 27939 097.7995 166.3877 0013258 341.9188 018.1545 14.64736931545595
0 VO-52
1 28650U 05017B 13347.86566015 .00003724 00000-0 44551-3 0 6051
2 28650 097.5615 357.2337 0026769 051.5513 009.3694 14.84467810465735
0 CO-58
1 28895U 05043F 13347.07802780 .00001701 00000-0 35194-3 0 6445
2 28895 097.8479 193.4847 0016492 235.2263 124.7387 14.61411394433061
0 CO-65
1 32785U 08021C 13346.83921678 .00002928 00000-0 35355-3 0 8137
2 32785 097.7288 039.0886 0015554 083.3068 335.0112 14.84430062304374
0 COMPASS 1
1 32787U 08021E 13347.73615542 .00006796 00000-0 77385-3 0 8034
2 32787 097.7304 041.4994 0015615 075.4573 284.8374 14.86411795304626
0 DO-64
1 32789U 08021G 13346.82885699 .00010671 00000-0 11004-2 0 8242
2 32789 097.7485 046.3310 0014061 068.3097 356.4093 14.90319178304711
0 RS-30
1 32953U 08025A 13347.30593618 .00000010 00000-0 00000+0 0 4625
2 32953 082.5019 316.7991 0017968 199.0604 160.9804 12.43040427252166
0 KKS-1
1 33499U 09002H 13347.30984451 .00002656 00000-0 42365-3 0 2299
2 33499 098.1667 108.7469 0010806 135.2929 275.9015 14.72745534262481

Keplerian bulletins are transmitted twice weekly from W1AW. The
next scheduled transmission of these data will be Tuesday, December
17, 2013, at 2330z on Baudot and BPSK31.
NNNN


Read previous mail | Read next mail


 13.09.2026 10:16:17lGo back Go up